Time,TemperatureF,DewpointF,PressureIn,WindDirection,WindDirectionDegrees,WindSpeedMPH,WindSpeedGustMPH,Humidity,HourlyPrecipIn,Conditions,Clouds,dailyrainin,SoftwareType,DateUTC
2013-03-01 00:01:00,52.0,42.0,30.10,ENE,69,6.0,6.0,69,0.00,,,0.00,,2013-02-28 23:01:00,
2013-03-01 00:11:00,51.0,42.0,30.10,ENE,65,3.0,6.0,70,0.00,,,0.00,,2013-02-28 23:11:00,
2013-03-01 00:21:00,51.0,42.0,30.10,ENE,65,3.0,6.0,70,0.00,,,0.00,,2013-02-28 23:21:00,
2013-03-01 00:31:00,51.0,42.0,30.10,ENE,65,4.0,6.0,70,0.00,,,0.00,,2013-02-28 23:31:00,
2013-03-01 00:41:00,51.0,42.0,30.10,ENE,65,4.0,6.0,70,0.00,,,0.00,,2013-02-28 23:41:00,
2013-03-01 00:52:00,51.0,40.0,30.09,ENE,71,8.0,9.0,65,0.00,,,0.00,,2013-02-28 23:52:00,
2013-03-01 01:01:00,52.0,40.0,30.09,ENE,73,9.0,11.0,63,0.00,,,0.00,,2013-03-01 00:01:00,
2013-03-01 01:11:00,52.0,40.0,30.09,ENE,73,9.0,11.0,63,0.00,,,0.00,,2013-03-01 00:11:00,
2013-03-01 01:22:00,52.0,40.0,30.08,ENE,67,6.0,10.0,63,0.00,,,0.00,,2013-03-01 00:22:00,
2013-03-01 01:32:00,52.0,39.0,30.08,East,80,10.0,10.0,62,0.00,,,0.00,,2013-03-01 00:32:00,
2013-03-01 01:41:00,52.0,39.0,30.08,East,80,10.0,10.0,62,0.00,,,0.00,,2013-03-01 00:41:00,
2013-03-01 01:52:00,52.0,39.0,30.07,ENE,71,8.0,10.0,60,0.00,,,0.00,,2013-03-01 00:52:00,
2013-03-01 02:01:00,52.0,39.0,30.07,ENE,74,6.0,8.0,60,0.00,,,0.00,,2013-03-01 01:01:00,
2013-03-01 02:11:00,52.0,39.0,30.07,ENE,73,6.0,9.0,60,0.00,,,0.00,,2013-03-01 01:11:00,
2013-03-01 02:21:00,52.0,39.0,30.07,ENE,73,6.0,9.0,60,0.00,,,0.00,,2013-03-01 01:21:00,
2013-03-01 02:31:00,52.0,39.0,30.07,ENE,73,6.0,7.0,60,0.00,,,0.00,,2013-03-01 01:31:00,
2013-03-01 02:41:00,52.0,39.0,30.07,ENE,73,6.0,7.0,60,0.00,,,0.00,,2013-03-01 01:41:00,
2013-03-01 02:52:00,52.0,39.0,30.07,ENE,63,10.0,10.0,61,0.00,,,0.00,,2013-03-01 01:52:00,
2013-03-01 03:01:00,52.0,39.0,30.06,ENE,72,8.0,8.0,61,0.00,,,0.00,,2013-03-01 02:01:00,
2013-03-01 03:11:00,52.0,39.0,30.06,ENE,66,6.0,8.0,61,0.00,,,0.00,,2013-03-01 02:11:00,
2013-03-01 03:21:00,52.0,39.0,30.06,ENE,66,6.0,8.0,61,0.00,,,0.00,,2013-03-01 02:21:00,
2013-03-01 03:31:00,51.0,38.0,30.06,ENE,71,7.0,9.0,62,0.00,,,0.00,,2013-03-01 02:31:00,
2013-03-01 03:41:00,51.0,38.0,30.06,ENE,71,7.0,9.0,62,0.00,,,0.00,,2013-03-01 02:41:00,
2013-03-01 03:52:00,52.0,39.0,30.05,ENE,69,6.0,9.0,61,0.00,,,0.00,,2013-03-01 02:52:00,
2013-03-01 04:01:00,52.0,39.0,30.05,ENE,69,3.0,7.0,61,0.00,,,0.00,,2013-03-01 03:01:00,
2013-03-01 04:11:00,52.0,39.0,30.05,ENE,69,3.0,7.0,61,0.00,,,0.00,,2013-03-01 03:11:00,
2013-03-01 04:21:00,52.0,39.0,30.05,ENE,69,3.0,7.0,61,0.00,,,0.00,,2013-03-01 03:21:00,
2013-03-01 04:31:00,52.0,38.0,30.04,ENE,67,7.0,7.0,59,0.00,,,0.00,,2013-03-01 03:31:00,
2013-03-01 04:41:00,52.0,38.0,30.04,ENE,67,7.0,7.0,59,0.00,,,0.00,,2013-03-01 03:41:00,
2013-03-01 04:52:00,52.0,38.0,30.04,ENE,67,3.0,6.0,59,0.00,,,0.00,,2013-03-01 03:52:00,
2013-03-01 05:01:00,52.0,39.0,30.04,ENE,67,3.0,4.0,60,0.00,,,0.00,,2013-03-01 04:01:00,
2013-03-01 05:11:00,52.0,39.0,30.04,ENE,67,3.0,4.0,60,0.00,,,0.00,,2013-03-01 04:11:00,
2013-03-01 05:21:00,51.0,38.0,30.04,ENE,67,3.0,4.0,61,0.00,,,0.00,,2013-03-01 04:21:00,
2013-03-01 05:31:00,52.0,39.0,30.04,ENE,69,6.0,7.0,60,0.00,,,0.00,,2013-03-01 04:31:00,
2013-03-01 05:41:00,52.0,39.0,30.04,ENE,69,6.0,7.0,60,0.00,,,0.00,,2013-03-01 04:41:00,
2013-03-01 05:52:00,52.0,38.0,30.04,ENE,74,2.0,6.0,59,0.00,,,0.00,,2013-03-01 04:52:00,
2013-03-01 06:01:00,52.0,39.0,30.04,East,91,5.0,6.0,60,0.00,,,0.00,,2013-03-01 05:01:00,
2013-03-01 06:11:00,52.0,39.0,30.04,East,91,5.0,6.0,60,0.00,,,0.00,,2013-03-01 05:11:00,
2013-03-01 06:22:00,52.0,38.0,30.03,East,79,6.0,8.0,58,0.00,,,0.00,,2013-03-01 05:22:00,
2013-03-01 06:32:00,52.0,38.0,30.03,ENE,78,6.0,7.0,58,0.00,,,0.00,,2013-03-01 05:32:00,
2013-03-01 06:41:00,52.0,38.0,30.03,ENE,78,6.0,7.0,58,0.00,,,0.00,,2013-03-01 05:41:00,
2013-03-01 06:52:00,52.0,37.0,30.02,East,85,3.0,6.0,57,0.00,,,0.00,,2013-03-01 05:52:00,
2013-03-01 07:01:00,52.0,37.0,30.02,East,82,4.0,6.0,57,0.00,,,0.00,,2013-03-01 06:01:00,
2013-03-01 07:11:00,52.0,38.0,30.02,East,90,4.0,5.0,58,0.00,,,0.00,,2013-03-01 06:11:00,
2013-03-01 07:21:00,52.0,38.0,30.02,East,90,4.0,5.0,58,0.00,,,0.00,,2013-03-01 06:21:00,
2013-03-01 07:31:00,52.0,39.0,30.03,East,90,0.0,0.0,60,0.00,,,0.00,,2013-03-01 06:31:00,
2013-03-01 07:41:00,52.0,39.0,30.03,East,90,0.0,0.0,60,0.00,,,0.00,,2013-03-01 06:41:00,
2013-03-01 07:52:00,51.0,38.0,30.03,East,90,2.0,2.0,62,0.00,,,0.00,,2013-03-01 06:52:00,
2013-03-01 08:01:00,52.0,39.0,30.03,East,88,3.0,6.0,61,0.00,,,0.00,,2013-03-01 07:01:00,
2013-03-01 08:11:00,52.0,39.0,30.03,East,88,3.0,6.0,61,0.00,,,0.00,,2013-03-01 07:11:00,
2013-03-01 08:21:00,52.0,39.0,30.03,East,86,3.0,4.0,60,0.00,,,0.00,,2013-03-01 07:21:00,
2013-03-01 08:31:00,53.0,39.0,30.02,East,86,2.0,4.0,59,0.00,,,0.00,,2013-03-01 07:31:00,
2013-03-01 08:41:00,53.0,39.0,30.02,East,86,2.0,4.0,59,0.00,,,0.00,,2013-03-01 07:41:00,
2013-03-01 08:52:00,52.0,41.0,30.03,NNE,23,4.0,5.0,65,0.00,,,0.00,,2013-03-01 07:52:00,
2013-03-01 09:01:00,51.0,40.0,30.03,NNE,13,6.0,7.0,66,0.00,,,0.00,,2013-03-01 08:01:00,
2013-03-01 09:11:00,51.0,40.0,30.03,NNE,13,6.0,7.0,66,0.00,,,0.00,,2013-03-01 08:11:00,
2013-03-01 09:21:00,52.0,42.0,30.03,NNE,31,3.0,7.0,68,0.00,,,0.00,,2013-03-01 08:21:00,
2013-03-01 09:31:00,52.0,42.0,30.02,NNE,17,4.0,8.0,68,0.00,,,0.00,,2013-03-01 08:31:00,
2013-03-01 09:42:00,52.0,42.0,30.02,NNE,17,4.0,8.0,68,0.00,,,0.00,,2013-03-01 08:42:00,
2013-03-01 09:53:00,53.0,43.0,30.01,NNE,19,5.0,5.0,68,0.00,,,0.00,,2013-03-01 08:53:00,
2013-03-01 10:01:00,54.0,43.0,30.01,NNE,22,4.0,5.0,66,0.00,,,0.00,,2013-03-01 09:01:00,
2013-03-01 10:11:00,54.0,43.0,30.01,NNE,22,4.0,5.0,66,0.00,,,0.00,,2013-03-01 09:11:00,
2013-03-01 10:21:00,56.0,41.0,30.01,South,171,3.0,4.0,58,0.00,,,0.00,,2013-03-01 09:21:00,
2013-03-01 10:31:00,55.0,42.0,30.00,SW,232,3.0,5.0,61,0.00,,,0.00,,2013-03-01 09:31:00,
2013-03-01 10:41:00,55.0,42.0,30.00,SW,232,3.0,5.0,61,0.00,,,0.00,,2013-03-01 09:41:00,
2013-03-01 10:52:00,56.0,41.0,30.00,SW,232,0.0,2.0,56,0.00,,,0.00,,2013-03-01 09:52:00,
2013-03-01 11:01:00,56.0,41.0,30.00,SW,232,0.0,2.0,56,0.00,,,0.00,,2013-03-01 10:01:00,
2013-03-01 11:11:00,56.0,41.0,30.00,SW,232,0.0,2.0,56,0.00,,,0.00,,2013-03-01 10:11:00,
2013-03-01 11:21:00,57.0,41.0,29.99,SW,234,4.0,4.0,56,0.00,,,0.00,,2013-03-01 10:21:00,
2013-03-01 11:31:00,56.0,41.0,29.99,WSW,256,4.0,5.0,58,0.00,,,0.00,,2013-03-01 10:31:00,
2013-03-01 11:42:00,56.0,41.0,29.99,WSW,256,4.0,5.0,58,0.00,,,0.00,,2013-03-01 10:42:00,
2013-03-01 11:52:00,56.0,42.0,30.00,WSW,246,3.0,5.0,60,0.00,,,0.00,,2013-03-01 10:52:00,
2013-03-01 12:01:00,56.0,43.0,30.00,WSW,250,3.0,5.0,61,0.00,,,0.00,,2013-03-01 11:01:00,
2013-03-01 12:11:00,56.0,43.0,30.00,WSW,250,3.0,5.0,61,0.00,,,0.00,,2013-03-01 11:11:00,
2013-03-01 12:22:00,55.0,42.0,30.00,WSW,250,2.0,3.0,61,0.00,,,0.00,,2013-03-01 11:22:00,
2013-03-01 12:31:00,56.0,44.0,29.99,WSW,244,0.0,1.0,64,0.00,,,0.00,,2013-03-01 11:31:00,
2013-03-01 12:41:00,56.0,44.0,29.99,WSW,244,0.0,1.0,64,0.00,,,0.00,,2013-03-01 11:41:00,
2013-03-01 12:52:00,56.0,44.0,29.98,WSW,244,0.0,0.0,64,0.00,,,0.00,,2013-03-01 11:52:00,
2013-03-01 13:01:00,56.0,44.0,29.98,SW,233,3.0,6.0,64,0.00,,,0.00,,2013-03-01 12:01:00,
2013-03-01 13:11:00,56.0,44.0,29.98,SW,233,3.0,6.0,64,0.00,,,0.00,,2013-03-01 12:11:00,
2013-03-01 13:21:00,56.0,44.0,29.98,SW,232,3.0,4.0,63,0.00,,,0.00,,2013-03-01 12:21:00,
2013-03-01 13:32:00,57.0,44.0,29.97,SW,232,3.0,3.0,61,0.00,,,0.00,,2013-03-01 12:32:00,
2013-03-01 13:41:00,57.0,44.0,29.97,SW,232,3.0,3.0,61,0.00,,,0.00,,2013-03-01 12:41:00,
2013-03-01 13:52:00,56.0,42.0,29.97,SW,232,3.0,4.0,60,0.00,,,0.00,,2013-03-01 12:52:00,
2013-03-01 14:01:00,56.0,42.0,29.97,SW,232,3.0,4.0,60,0.00,,,0.00,,2013-03-01 13:01:00,
2013-03-01 14:11:00,56.0,43.0,29.96,SW,236,0.0,3.0,61,0.00,,,0.00,,2013-03-01 13:11:00,
2013-03-01 14:21:00,56.0,43.0,29.96,SW,236,0.0,3.0,61,0.00,,,0.00,,2013-03-01 13:21:00,
2013-03-01 14:32:00,56.0,43.0,29.96,SW,236,0.0,3.0,61,0.00,,,0.00,,2013-03-01 13:32:00,
2013-03-01 14:42:00,56.0,43.0,29.96,SW,236,0.0,3.0,61,0.00,,,0.00,,2013-03-01 13:42:00,
2013-03-01 14:52:00,57.0,43.0,29.95,SW,236,0.0,2.0,60,0.00,,,0.00,,2013-03-01 13:52:00,
2013-03-01 15:01:00,56.0,42.0,29.94,SW,236,3.0,3.0,59,0.00,,,0.00,,2013-03-01 14:01:00,
2013-03-01 15:11:00,56.0,42.0,29.94,SW,236,3.0,3.0,59,0.00,,,0.00,,2013-03-01 14:11:00,
2013-03-01 15:21:00,56.0,41.0,29.93,SW,236,1.0,3.0,58,0.00,,,0.00,,2013-03-01 14:21:00,
2013-03-01 15:32:00,57.0,42.0,29.93,SSE,151,3.0,4.0,58,0.00,,,0.00,,2013-03-01 14:32:00,
2013-03-01 15:41:00,57.0,42.0,29.93,SSE,151,3.0,4.0,58,0.00,,,0.00,,2013-03-01 14:41:00,
2013-03-01 15:52:00,57.0,42.0,29.93,SSE,151,4.0,4.0,58,0.00,,,0.00,,2013-03-01 14:52:00,
2013-03-01 16:01:00,57.0,43.0,29.93,SSE,152,3.0,4.0,59,0.00,,,0.00,,2013-03-01 15:01:00,
2013-03-01 16:11:00,57.0,44.0,29.92,SSE,153,3.0,3.0,61,0.00,,,0.00,,2013-03-01 15:11:00,
2013-03-01 16:21:00,57.0,44.0,29.92,SSE,153,3.0,3.0,61,0.00,,,0.00,,2013-03-01 15:21:00,
2013-03-01 16:31:00,57.0,44.0,29.92,SSE,153,3.0,3.0,61,0.00,,,0.00,,2013-03-01 15:31:00,
2013-03-01 16:42:00,57.0,44.0,29.92,SSE,153,3.0,3.0,61,0.00,,,0.00,,2013-03-01 15:42:00,
2013-03-01 16:51:00,56.0,45.0,29.90,SSE,153,0.0,0.0,66,0.00,,,0.00,,2013-03-01 15:51:00,
2013-03-01 17:01:00,56.0,45.0,29.90,SSE,153,0.0,1.0,66,0.00,,,0.00,,2013-03-01 16:01:00,
2013-03-01 17:11:00,56.0,45.0,29.90,SSE,153,0.0,1.0,66,0.00,,,0.00,,2013-03-01 16:11:00,
2013-03-01 17:21:00,56.0,44.0,29.89,SSE,153,0.0,0.0,64,0.00,,,0.00,,2013-03-01 16:21:00,
2013-03-01 17:31:00,56.0,44.0,29.89,SSE,153,0.0,0.0,64,0.00,,,0.00,,2013-03-01 16:31:00,
2013-03-01 17:41:00,56.0,44.0,29.89,SSE,153,0.0,0.0,64,0.00,,,0.00,,2013-03-01 16:41:00,
2013-03-01 17:52:00,56.0,44.0,29.89,SSE,153,0.0,0.0,64,0.00,,,0.00,,2013-03-01 16:52:00,
2013-03-01 18:01:00,55.0,44.0,29.87,SSE,153,1.0,3.0,66,0.00,,,0.00,,2013-03-01 17:01:00,
2013-03-01 18:11:00,56.0,43.0,29.87,SSE,153,2.0,2.0,62,0.00,,,0.00,,2013-03-01 17:11:00,
2013-03-01 18:21:00,56.0,43.0,29.87,SSE,153,2.0,2.0,62,0.00,,,0.00,,2013-03-01 17:21:00,
2013-03-01 18:31:00,55.0,42.0,29.87,SSE,153,3.0,3.0,62,0.00,,,0.00,,2013-03-01 17:31:00,
2013-03-01 18:41:00,55.0,42.0,29.86,SE,127,4.0,4.0,62,0.00,,,0.00,,2013-03-01 17:41:00,
2013-03-01 18:52:00,55.0,42.0,29.86,SE,127,4.0,4.0,62,0.00,,,0.00,,2013-03-01 17:52:00,
2013-03-01 19:01:00,55.0,42.0,29.86,SE,126,3.0,4.0,61,0.00,,,0.00,,2013-03-01 18:01:00,
2013-03-01 19:11:00,55.0,42.0,29.86,SE,126,3.0,4.0,61,0.00,,,0.00,,2013-03-01 18:11:00,
2013-03-01 19:21:00,55.0,41.0,29.85,SE,126,3.0,3.0,60,0.00,,,0.00,,2013-03-01 18:21:00,
2013-03-01 19:31:00,55.0,42.0,29.85,SE,126,0.0,2.0,61,0.00,,,0.00,,2013-03-01 18:31:00,
2013-03-01 19:41:00,56.0,42.0,29.85,SE,126,3.0,4.0,59,0.00,,,0.00,,2013-03-01 18:41:00,
2013-03-01 19:52:00,56.0,42.0,29.85,SE,126,3.0,4.0,59,0.00,,,0.00,,2013-03-01 18:52:00,
2013-03-01 20:01:00,56.0,42.0,29.84,ENE,57,3.0,8.0,59,0.00,,,0.00,,2013-03-01 19:01:00,
2013-03-01 20:11:00,56.0,42.0,29.84,ENE,57,3.0,8.0,59,0.00,,,0.00,,2013-03-01 19:11:00,
2013-03-01 20:21:00,55.0,41.0,29.85,East,84,3.0,6.0,59,0.00,,,0.00,,2013-03-01 19:21:00,
2013-03-01 20:31:00,55.0,41.0,29.84,East,84,4.0,6.0,59,0.00,,,0.00,,2013-03-01 19:31:00,
2013-03-01 20:41:00,55.0,41.0,29.84,East,84,4.0,6.0,59,0.00,,,0.00,,2013-03-01 19:41:00,
2013-03-01 20:51:00,55.0,41.0,29.84,East,80,5.0,7.0,59,0.00,,,0.00,,2013-03-01 19:51:00,
2013-03-01 21:01:00,55.0,42.0,29.85,ENE,78,6.0,6.0,61,0.00,,,0.00,,2013-03-01 20:01:00,
2013-03-01 21:11:00,55.0,42.0,29.85,ENE,78,6.0,6.0,61,0.00,,,0.00,,2013-03-01 20:11:00,
2013-03-01 21:21:00,54.0,41.0,29.85,East,79,4.0,8.0,61,0.00,,,0.00,,2013-03-01 20:21:00,
2013-03-01 21:31:00,54.0,41.0,29.85,East,79,2.0,3.0,61,0.00,,,0.00,,2013-03-01 20:31:00,
2013-03-01 21:41:00,54.0,41.0,29.85,East,79,2.0,3.0,61,0.00,,,0.00,,2013-03-01 20:41:00,
2013-03-01 21:50:00,53.0,41.0,29.86,ENE,77,3.0,3.0,63,0.00,,,0.00,,2013-03-01 20:50:00,
2013-03-01 21:52:00,53.0,41.0,29.85,ENE,77,3.0,5.0,63,0.00,,,0.00,,2013-03-01 20:52:00,
2013-03-01 22:01:00,53.0,41.0,29.86,ENE,77,2.0,2.0,64,0.00,,,0.00,,2013-03-01 21:01:00,
2013-03-01 22:11:00,53.0,41.0,29.86,ENE,77,3.0,3.0,63,0.00,,,0.00,,2013-03-01 21:11:00,
2013-03-01 22:21:00,53.0,41.0,29.86,ENE,77,3.0,3.0,63,0.00,,,0.00,,2013-03-01 21:21:00,
2013-03-01 22:31:00,53.0,41.0,29.86,ENE,77,3.0,3.0,63,0.00,,,0.00,,2013-03-01 21:31:00,
2013-03-01 22:41:00,53.0,41.0,29.86,ENE,77,3.0,3.0,63,0.00,,,0.00,,2013-03-01 21:41:00,